Regional Weather Roundup
Issued by NWS

Home | Current Version | Previous Version | Text Only | Print | Product List | Glossary Off
Versions: 1 2 3 4 5 6 7 8 9 10 11 12 13 14 15 16 17 18 19 20 21 22 23 24 25 26 27 28 29 30 31 32 33 34 35 36 37 38 39 40 41 42 43 44 45 46 47 48 49 50

000
ASUS43 KMKX 231811
RWRWI

WISCONSIN REGIONAL WEATHER ROUNDUP
NATIONAL WEATHER SERVICE MILWAUKEE/SULLIVAN WI
100 PM CDT SAT JUL 23 2016

NOTE: "FAIR" INDICATES FEW OR NO CLOUDS BELOW 12,000 FEET WITH NO
SIGNIFICANT WEATHER AND/OR OBSTRUCTIONS TO VISIBILITY.

WIZ001-002-006>008-014>016-023>028-231900-
NORTHWEST WISCONSIN

CITY           SKY/WX    TMP DP  RH WIND       PRES   REMARKS
SUPERIOR ARPT  CLOUDY    66  61  83 NE13G18   29.93F
6HR MIN TEMP:  63; 6HR MAX TEMP:  73;

ASHLAND        CLOUDY    75  67  76 N7        29.94F
6HR MIN TEMP:  63; 6HR MAX TEMP:  83;

HAYWARD        CLOUDY    80  68  66 S13       29.95F HX  83
6HR MIN TEMP:  68; 6HR MAX TEMP:  82;

SIREN          CLOUDY    77  66  69 S15       29.93S
CUMBERLAND     CLOUDY    72  64  78 S10       29.96R
RICE LAKE      CLOUDY    75  67  77 S10       29.98R THUNDER
6HR MIN TEMP:  67; 6HR MAX TEMP:  80;

CHETEK         LGT RAIN  74  67  77 SW5       29.96S
6HR MIN TEMP:  68; 6HR MAX TEMP:  82;

LADYSMITH      CLOUDY    79  69  72 S3        29.98F HX  81
6HR MIN TEMP:  69; 6HR MAX TEMP:  85;

EAU CLAIRE     LGT RAIN  73  70  90 W6        29.96F
6HR MIN TEMP:  73; 6HR MAX TEMP:  84; 6HR PCP:  0.02;

MENOMONIE      RAIN      71  70  98 CALM      29.96S
6HR MIN TEMP:  69; 6HR MAX TEMP:  83; 6HR PCP:  0.20;

NEW RICHMOND   RAIN      71  70  96 SE12G18   29.94S
6HR MIN TEMP:  69; 6HR MAX TEMP:  81; 6HR PCP:  0.09;

OSCEOLA        HVY RAIN  72  72 100 SE8       29.95R
6HR MIN TEMP:  71; 6HR MAX TEMP:  81; 6HR PCP:  0.04;

$$

WIZ003>005-009-010-017-018-231900-
NORTH CENTRAL WISCONSIN

CITY           SKY/WX    TMP DP  RH WIND       PRES   REMARKS
MANITOWISH WTR PTSUNNY   82  63  52 SE5       30.00F HX  83
6HR MIN TEMP:  63; 6HR MAX TEMP:  82;

ARBOR VITAE    CLOUDY    82  61  48 SE7       30.00F HX  83
6HR MIN TEMP:  65; 6HR MAX TEMP:  83;

WOODRUFF       CLOUDY    82  61  48 SE7       30.00F HX  83
6HR MIN TEMP:  65; 6HR MAX TEMP:  83;

RHINELANDER    CLOUDY    84  63  49 SE6       30.02F HX  85
6HR MIN TEMP:  67; 6HR MAX TEMP:  84;

EAGLE RIVER    CLOUDY    84  58  41 CALM      30.01F HX  83
6HR MIN TEMP:  63; 6HR MAX TEMP:  84;

LAND O LAKES   CLOUDY    85  57  38 S7        30.03F HX  84
6HR MIN TEMP:  61; 6HR MAX TEMP:  85;

PHILLIPS       CLOUDY    81  69  67 S8        29.98F HX  84
6HR MIN TEMP:  65; 6HR MAX TEMP:  82;

TOMAHAWK       CLOUDY    82  66  60 CALM      30.01F HX  84
6HR MIN TEMP:  63; 6HR MAX TEMP:  84;

MEDFORD        CLOUDY    77  71  82 S6        29.99F
6HR MIN TEMP:  66; 6HR MAX TEMP:  81;

MERRILL        CLOUDY    83  68  60 S5        30.00F HX  86
6HR MIN TEMP:  64; 6HR MAX TEMP:  84;

$$

WIZ029-030-035-036-043>047-231900-
CENTRAL WISCONSIN

CITY           SKY/WX    TMP DP  RH WIND       PRES   REMARKS
WAUSAU         CLOUDY    83  66  56 S10       29.98F HX  85
6HR MIN TEMP:  69; 6HR MAX TEMP:  85;

MOSINEE        SUNNY     81  70  69 S6        30.01F HX  84
MARSHFIELD     CLOUDY    79  70  74 S8        29.99F HX  82
6HR MIN TEMP:  70; 6HR MAX TEMP:  85;

STEVENS POINT  CLOUDY    80  67  63 SE6       30.00F HX  82
6HR MIN TEMP:  65; 6HR MAX TEMP:  83;

WAUPACA        CLOUDY    86  68  54 CALM      29.99F HX  89
6HR MIN TEMP:  71; 6HR MAX TEMP:  87;

WAUTOMA        CLOUDY    83  74  74 SW6       30.00S HX  89
6HR MIN TEMP:  67; 6HR MAX TEMP:  84;

WISC RAPIDS    CLOUDY    82  69  64 S5        30.01S HX  85
6HR MIN TEMP:  71; 6HR MAX TEMP:  86;

CAMP DOUGLAS   LGT RAIN  75  73  94 W7        30.03R
                                      6HR PCP: TRACE;

$$

WIZ011>013-019>022-031-037>040-048>050-231900-
NORTHEAST WISCONSIN

CITY           SKY/WX    TMP DP  RH WIND       PRES   REMARKS
ANTIGO         CLOUDY    81  64  55 CALM      30.02F HX  82
6HR MIN TEMP:  67; 6HR MAX TEMP:  83;

SHAWANO        CLOUDY    86  61  42 S5        30.00S HX  86
6HR MIN TEMP:  70; 6HR MAX TEMP:  87;

OCONTO         CLOUDY    83  62  48 E3        29.99S HX  83
6HR MIN TEMP:  69; 6HR MAX TEMP:  83;

STURGEON BAY   MOSUNNY   83  61  47 E7        30.01F HX  83
6HR MIN TEMP:  71; 6HR MAX TEMP:  86;

GREEN BAY      CLOUDY    85  71  63 S6        29.99R HX  90
6HR MIN TEMP:  72; 6HR MAX TEMP:  88;

MANITOWOC      CLOUDY    81  64  56 E6        30.00S HX  82
6HR MIN TEMP:  72; 6HR MAX TEMP:  84;

APPLETON       PTSUNNY   84  61  45 SE3       29.99S HX  84
CLINTONVILLE   CLOUDY    84  66  54 E3        30.00S HX  86
OSHKOSH        CLOUDY    86  71  60 S3        29.99S HX  91
6HR MIN TEMP:  75; 6HR MAX TEMP:  86;

$$

WIZ032>034-041-042-053>061-231900-
SOUTHWEST WISCONSIN

CITY           SKY/WX    TMP DP  RH WIND       PRES   REMARKS
LA CROSSE      RAIN      73  71  93 SE5       29.97F FOG
6HR MIN TEMP:  72; 6HR MAX TEMP:  79; 6HR PCP:  0.83;

SPARTA         RAIN      71  69  95 SW5       30.03R
6HR MIN TEMP:  65; 6HR MAX TEMP:  79; 6HR PCP:  0.02;

VIROQUA        CLOUDY    70  70 100 S5        30.05R
6HR MIN TEMP:  69; 6HR MAX TEMP:  78; 6HR PCP:  0.34;

BOSCOBEL       LGT RAIN  72  71  97 NW10      30.02F
6HR MIN TEMP:  71; 6HR MAX TEMP:  78; 6HR PCP:  1.41;

PRAIRIE DU CHI LGT RAIN  69  67  95 NE6       29.99R
6HR MIN TEMP:  68; 6HR MAX TEMP:  78; 6HR PCP:  3.48;

PLATTEVILLE    CLOUDY    71  71 100 N15       30.03R
6HR MIN TEMP:  71; 6HR MAX TEMP:  80; 6HR PCP:  0.55;

$$

WIZ056-057-062-063-064-067-068-231900-
SOUTH CENTRAL WISCONSIN

CITY           SKY/WX    TMP DP  RH WIND       PRES   REMARKS
REEDSBURG      LGT RAIN N/A N/A N/A CALM      29.99F
                                      6HR PCP:  0.06;

BARABOO/DELLS  TSTM      77  75  92 NE3       30.00F
6HR MIN TEMP:  74; 6HR MAX TEMP:  79; 6HR PCP:  0.05;

LONE ROCK      TSTM      72  70  93 W8        30.05R FOG
6HR MIN TEMP:  72; 6HR MAX TEMP:  80; 6HR PCP:  0.28;

MINERAL POINT  HVY RAIN  72  70  94 W24G31    30.07R
MADISON        TSTM      83  78  85 N5        29.99R HX  93
6HR MIN TEMP:  76; 6HR MAX TEMP:  84; 6HR PCP: TRACE;

MIDDLETON      CLOUDY    81  80  98 W5        30.01S HX  91
6HR MIN TEMP:  77; 6HR MAX TEMP:  85;

WATERTOWN      CLOUDY    82  79  89 CALM      29.99S HX  93
6HR MIN TEMP:  74; 6HR MAX TEMP:  82;

MONROE         CLOUDY    81  77  89 CALM      30.00S HX  88
JANESVILLE     PTSUNNY   86  75  70 CALM      29.98S HX  95
$$

WIZ051-052-058>065-066-070>072-231900-
SOUTHEAST WISCONSIN

CITY           SKY/WX    TMP DP  RH WIND       PRES   REMARKS
MILWAUKEE      CLOUDY    86  75  69 SE8       29.99S HX  95
6HR MIN TEMP:  80; 6HR MAX TEMP:  89;

WAUKESHA       MOSUNNY   84  68  58 SW3       30.01S HX  87
MILWAUKEE/TIMM SUNNY     84  70  61 SE6       30.01R HX  88
RACINE         CLOUDY    85  76  74 SE7       30.01S HX  94
6HR MIN TEMP:  78; 6HR MAX TEMP:  87;

BURLINGTON     CLOUDY    86  77  73 S3        29.99S HX  97
6HR MIN TEMP:  75; 6HR MAX TEMP:  87;

KENOSHA        CLOUDY    86  76  71 E9        29.99S HX  96
6HR MIN TEMP:  77; 6HR MAX TEMP:  88;

FOND DU LAC    CLOUDY    87  74  64 W7        29.99R HX  95
6HR MIN TEMP:  71; 6HR MAX TEMP:  89;

SHEBOYGAN      CLOUDY    81  66  60 E7        30.00S HX  83
6HR MIN TEMP:  73; 6HR MAX TEMP:  85;

WEST BEND      CLOUDY    86  64  48 S3        30.00R HX  87
JUNEAU         CLOUDY    81  77  88 CALM      30.01S HX  88
6HR MIN TEMP:  73; 6HR MAX TEMP:  82;

$$

LSZ147-162-231900-
LAKE SUPERIOR

STATION/POSITION TIME  TEMP    WIND        PRES    WAVE
                       AIR SEA DIR/SP/G            HT/PER
                 (UTC) (F)     (DEG/KT/KT) (MB)    (FT/S)
W MID LAKE BUOY  1750   60 59   90/ 10/ 10 1015.2R   1
DEVILS ISLAND    1800   65      70/  9/  9 1014.9S
SAXON HARBOR     1740   71     360/  2/  5 1014.2F
$$

LMZ867-665-643>646-231900-
LAKE MICHIGAN

STATION/POSITION TIME  TEMP    WIND        PRES    WAVE
                       AIR SEA DIR/SP/G            HT/PER
                 (UTC) (FC1F1C2F2C3F3C4F4C5F5C6F6C7F7C8M1C9M2Ca!



USA.gov is the U.S. government's official web portal to all federal, state and local government web resources and services.